Weather History for Oxford, CT

Change the Weather History Date:

Tuesday, August 5, 2014

  Actual Average Record
Temperature  
Mean Temperature 73 °F -  
Max Temperature 84 °F 77 °F 89 °F (2005)
Min Temperature 62 °F 59 °F 55 °F (2013)
Cooling Degree Days 8    
Growing Degree Days 23 (Base 50)    
Moisture  
Dew Point 62 °F    
Average Humidity 77    
Maximum Humidity 94    
Minimum Humidity 45    
Precipitation  
Precipitation 0.00 in - - ()
Sea Level Pressure  
Sea Level Pressure 30.05 in    
Wind  
Wind Speed 1 mph (SSW)    
Max Wind Speed 10 mph    
Max Gust Speed -    
Visibility 8 miles    
Events Fog    
Averages and records for this station are not official NWS values.
T = Trace of Precipitation, MM = Missing Value Source: NWS Daily Summary

Daily Weather History Graph

Daily Weather History Graph

Search for Another Location

Airport:

Trip Planner

Search our weather history database for the weather conditions in past years. The results will help you decide how hot, cold, wet, or windy it might be!

Date:

Astronomy

Aug. 05, 2014 Rise Set
Actual Time 5:51 AM EDT 8:05 PM EDT
Civil Twilight 5:20 AM EDT 8:35 PM EDT
Nautical Twilight 4:42 AM EDT 9:13 PM EDT
Astronomical Twilight 4:00 AM EDT 9:55 PM EDT
Moon 3:17 PM EDT (8/5) 12:37 AM EDT (8/5)
Length of Visible Light 15h 15m
Length of Day
14h 13m
Waxing Gibbous, 67% of the Moon is Illuminated
Aug 5
Waxing Gibbous
Aug 10
Full
Aug 17
Last Quarter
Aug 25
New
Sep 2
First Quarter

Hourly Weather History & Observations

Time (EDT) Temp. Heat Index Dew Point Humidity Pressure Visibility Wind Dir Wind Speed Gust Speed Precip Events Conditions
12:15 AM 66.2 °F - 62.6 °F 88% 30.08 in 10.0 mi Calm Calm - N/A   Clear
12:35 AM 66.2 °F - 62.6 °F 88% 30.08 in 10.0 mi Calm Calm - N/A   Clear
12:55 AM 66.2 °F - 62.6 °F 88% 30.08 in 7.0 mi Calm Calm - N/A   Clear
1:15 AM 64.4 °F - 62.6 °F 94% 30.08 in 8.0 mi Calm Calm - N/A   Clear
1:35 AM 66.2 °F - 60.8 °F 83% 30.07 in 7.0 mi Calm Calm - N/A   Clear
1:55 AM 64.4 °F - 60.8 °F 88% 30.08 in 8.0 mi Calm Calm - N/A   Clear
2:15 AM 64.4 °F - 60.8 °F 88% 30.07 in 8.0 mi Calm Calm - N/A   Clear
2:35 AM 64.4 °F - 60.8 °F 88% 30.07 in 5.0 mi Calm Calm - N/A   Clear
2:55 AM 64.4 °F - 60.8 °F 88% 30.06 in 6.0 mi North 3.5 mph - N/A   Clear
3:15 AM 64.4 °F - 60.8 °F 88% 30.06 in 7.0 mi Calm Calm - N/A   Clear
3:35 AM 64.4 °F - 60.8 °F 88% 30.06 in 8.0 mi Calm Calm - N/A   Clear
3:55 AM 64.4 °F - 60.8 °F 88% 30.06 in 5.0 mi Calm Calm - N/A   Clear
4:15 AM 64.4 °F - 60.8 °F 88% 30.06 in 6.0 mi Calm Calm - N/A   Clear
4:35 AM 62.6 °F - 59.0 °F 88% 30.06 in 3.0 mi Calm Calm - N/A   Partly Cloudy
4:55 AM 62.6 °F - 59.0 °F 88% 30.06 in 1.0 mi Calm Calm - N/A   Mostly Cloudy
5:15 AM 62.6 °F - 59.0 °F 88% 30.07 in 3.0 mi Calm Calm - N/A   Partly Cloudy
5:35 AM 62.6 °F - 59.0 °F 88% 30.07 in 5.0 mi Calm Calm - N/A   Clear
6:45 AM 64.4 °F - 60.8 °F 88% 30.07 in 4.0 mi NNW 3.5 mph - N/A Fog Scattered Clouds
7:50 AM 69.8 °F - 64.4 °F 83% 30.08 in 8.0 mi Calm Calm - N/A Fog Patches of Fog
8:50 AM 73.4 °F - 66.2 °F 78% 30.09 in 8.0 mi Calm Calm - N/A Fog Patches of Fog
9:45 AM 77.0 °F - 60.8 °F 57% 30.08 in 8.0 mi Calm Calm - N/A   Clear
11:45 AM 78.8 °F - 62.6 °F 57% 30.08 in 10.0 mi Calm Calm - N/A   Scattered Clouds
12:45 PM 82.4 °F 83.9 °F 64.4 °F 54% 30.06 in 10.0 mi North - - N/A   Scattered Clouds
2:45 PM 82.4 °F 82.9 °F 60.8 °F 48% 30.01 in 10.0 mi North - - N/A   Scattered Clouds
3:45 PM 84.2 °F 84.4 °F 60.8 °F 45% 29.99 in 10.0 mi North - - N/A   Scattered Clouds
4:45 PM 84.2 °F 85.0 °F 62.6 °F 48% 29.98 in 10.0 mi SW 5.8 mph - N/A   Scattered Clouds
5:52 PM 82.4 °F 83.9 °F 64.4 °F 54% 29.97 in 10.0 mi South 10.4 mph - N/A   Scattered Clouds
6:52 PM 78.8 °F - 62.6 °F 57% 29.97 in 10.0 mi South 8.1 mph - N/A   Partly Cloudy
7:52 PM 75.2 °F - 64.4 °F 69% 29.96 in 10.0 mi South 8.1 mph - N/A   Partly Cloudy
8:52 PM 73.4 °F - 64.4 °F 73% 29.97 in 10.0 mi SSE 4.6 mph - N/A   Partly Cloudy